Location: ?????? ??????
(44.3742°N, 135.2221°E)
Time: 01:56:53
(UTC+00:00)

Cosmos 405 Rocket - Pass Details

Date: 19 May 2025
Orbit: 414 x 448 km, 81.2° (Epoch: 14 June)

Event Time Altitude Azimuth Distance (km) Brightness Sun altitude
Rises 13:51:32 0° 348° (NNW) 2,455 7.6 -24.1°
Reaches altitude 10° 13:53:37 10° 348° (NNW) 1,573 6.2 -24.2°
Enters shadow 13:56:03 43° 342° (NNW) 631 3.5 -24.3°
